Radiation Dose at Monitoring Post of Fukushima Daini Nuclear Power Station
Date,Time,MP-1(microSv/h),MP-2(microSv/h),MP-3(microSv/h),MP-4(microSv/h),MP-5(microSv/h),MP-6(microSv/h),MP-7(microSv/h),Wind Direction,Wind Velocity(m/s),Rain
2024/03/09,00:00,0.142,0.125,0.199,0.186,0.198,0.112,0.074,northwest,6.3,No
2024/03/09,00:10,0.142,0.126,0.199,0.185,0.197,0.113,0.075,northwest,6.9,No
2024/03/09,00:20,0.143,0.126,0.199,0.185,0.197,0.112,0.074,northwest,6.2,No
2024/03/09,00:30,0.142,0.126,0.199,0.185,0.197,0.112,0.074,northwest,6.8,No
2024/03/09,00:40,0.143,0.125,0.200,0.184,0.198,0.112,0.074,northwest,7.0,No
2024/03/09,00:50,0.142,0.126,0.199,0.185,0.198,0.112,0.075,northwest,6.6,No
2024/03/09,01:00,0.143,0.126,0.199,0.186,0.198,0.112,0.075,northwest,7.3,No
2024/03/09,01:10,0.142,0.126,0.199,0.184,0.198,0.113,0.074,northwest,7.1,No
2024/03/09,01:20,0.143,0.126,0.198,0.185,0.197,0.112,0.074,northwest,6.8,No
2024/03/09,01:30,0.143,0.125,0.199,0.186,0.196,0.113,0.074,northwest,6.4,No
2024/03/09,01:40,0.143,0.126,0.198,0.186,0.197,0.112,0.074,northwest,7.0,No
2024/03/09,01:50,0.141,0.126,0.200,0.185,0.198,0.112,0.074,north-northwest,6.8,No
2024/03/09,02:00,0.142,0.126,0.200,0.186,0.198,0.113,0.074,northwest,6.4,No
2024/03/09,02:10,0.142,0.125,0.199,0.185,0.197,0.113,0.075,northwest,5.1,No
2024/03/09,02:20,0.143,0.125,0.199,0.186,0.198,0.113,0.075,northwest,5.5,No
2024/03/09,02:30,0.143,0.126,0.199,0.185,0.198,0.113,0.074,northwest,5.4,No
2024/03/09,02:40,0.142,0.126,0.199,0.186,0.197,0.112,0.074,northwest,6.2,No
2024/03/09,02:50,0.142,0.125,0.198,0.185,0.197,0.112,0.074,northwest,6.0,No
2024/03/09,03:00,0.142,0.126,0.198,0.186,0.197,0.113,0.074,northwest,5.0,No
2024/03/09,03:10,0.144,0.124,0.199,0.186,0.198,0.112,0.074,northwest,6.2,No
2024/03/09,03:20,0.142,0.126,0.199,0.185,0.197,0.113,0.074,northwest,5.8,No
2024/03/09,03:30,0.142,0.125,0.200,0.185,0.197,0.113,0.074,northwest,5.5,No
2024/03/09,03:40,0.143,0.126,0.199,0.185,0.198,0.113,0.075,north-northwest,6.1,No
2024/03/09,03:50,0.143,0.126,0.199,0.185,0.198,0.113,0.075,northwest,4.1,No
2024/03/09,04:00,0.142,0.126,0.199,0.186,0.199,0.113,0.075,northwest,3.7,No
2024/03/09,04:10,0.142,0.126,0.199,0.186,0.197,0.113,0.074,north-northwest,3.6,No
2024/03/09,04:20,0.143,0.126,0.199,0.186,0.197,0.113,0.075,north-northwest,2.8,No
2024/03/09,04:30,0.142,0.125,0.199,0.185,0.196,0.113,0.075,north-northwest,3.8,No
2024/03/09,04:40,0.142,0.126,0.199,0.185,0.198,0.114,0.074,northwest,3.0,No
2024/03/09,04:50,0.142,0.126,0.198,0.185,0.197,0.113,0.074,north-northwest,4.3,No
2024/03/09,05:00,0.143,0.126,0.198,0.186,0.198,0.113,0.074,northwest,3.9,No
2024/03/09,05:10,0.142,0.125,0.199,0.186,0.198,0.113,0.074,northwest,3.3,No
2024/03/09,05:20,0.142,0.126,0.199,0.185,0.197,0.113,0.075,northwest,3.7,No
2024/03/09,05:30,0.142,0.126,0.199,0.185,0.197,0.113,0.075,northwest,4.3,No
2024/03/09,05:40,0.143,0.126,0.198,0.185,0.198,0.113,0.075,northwest,4.9,No
2024/03/09,05:50,0.142,0.125,0.198,0.186,0.197,0.113,0.075,west-northwest,7.9,Yes
2024/03/09,06:00,0.142,0.125,0.198,0.185,0.198,0.113,0.075,west-northwest,3.8,No
2024/03/09,06:10,0.142,0.125,0.199,0.185,0.197,0.114,0.075,west-southwest,3.7,No
2024/03/09,06:20,0.143,0.127,0.200,0.186,0.198,0.114,0.075,southwest,4.5,No
2024/03/09,06:30,0.142,0.125,0.200,0.186,0.198,0.114,0.075,southwest,4.4,No
2024/03/09,06:40,0.142,0.126,0.200,0.186,0.198,0.113,0.075,southwest,2.2,No
2024/03/09,06:50,0.143,0.125,0.198,0.186,0.198,0.115,0.076,-,CALM,No
2024/03/09,07:00,0.142,0.127,0.199,0.187,0.198,0.114,0.076,south-southwest,1.7,No
2024/03/09,07:10,0.143,0.126,0.199,0.185,0.198,0.114,0.076,southeast,0.9,No
2024/03/09,07:20,0.142,0.127,0.198,0.186,0.197,0.113,0.075,northwest,1.5,No
2024/03/09,07:30,0.143,0.126,0.200,0.185,0.196,0.114,0.074,north,1.2,No
2024/03/09,07:40,0.142,0.126,0.200,0.186,0.197,0.113,0.074,northwest,1.6,No
2024/03/09,07:50,0.143,0.125,0.200,0.184,0.197,0.113,0.073,northwest,5.2,No
2024/03/09,08:00,0.142,0.125,0.198,0.184,0.196,0.113,0.074,west,5.9,No
2024/03/09,08:10,0.142,0.126,0.199,0.185,0.198,0.112,0.074,west-northwest,9.5,No
2024/03/09,08:20,0.142,0.125,0.197,0.184,0.197,0.113,0.074,west,16.2,No
2024/03/09,08:30,0.143,0.124,0.199,0.184,0.197,0.113,0.073,west-northwest,11.8,No
2024/03/09,08:40,0.142,0.125,0.198,0.185,0.197,0.113,0.074,west-northwest,12.3,No
2024/03/09,08:50,0.143,0.125,0.197,0.186,0.197,0.112,0.074,west-northwest,12.2,No
2024/03/09,09:00,0.143,0.124,0.199,0.185,0.197,0.114,0.074,west-northwest,13.4,No
2024/03/09,09:10,0.143,0.125,0.200,0.185,0.198,0.113,0.074,west-northwest,14.6,No
2024/03/09,09:20,0.143,0.125,0.200,0.186,0.199,0.113,0.073,west,18.3,No
2024/03/09,09:30,0.142,0.125,0.199,0.186,0.198,0.113,0.074,west-northwest,20.9,No
2024/03/09,09:40,0.143,0.125,0.200,0.187,0.199,0.113,0.075,west,17.2,No
2024/03/09,09:50,0.143,0.126,0.200,0.188,0.200,0.114,0.074,west,22.7,No
2024/03/09,10:00,0.143,0.126,0.200,0.187,0.200,0.114,0.074,west-northwest,18.5,No
2024/03/09,10:10,0.144,0.126,0.201,0.188,0.200,0.114,0.074,west,19.8,No
2024/03/09,10:20,0.143,0.125,0.200,0.188,0.201,0.113,0.075,west-northwest,20.9,No
2024/03/09,10:30,0.143,0.127,0.200,0.188,0.202,0.114,0.074,west,22.3,No
2024/03/09,10:40,0.144,0.127,0.200,0.189,0.201,0.114,0.075,west,17.3,No
2024/03/09,10:50,0.143,0.126,0.200,0.190,0.202,0.113,0.074,west,20.0,No
2024/03/09,11:00,0.143,0.126,0.200,0.189,0.202,0.114,0.075,west,15.1,No
2024/03/09,11:10,0.144,0.126,0.201,0.189,0.201,0.114,0.074,west-northwest,18.0,No
2024/03/09,11:20,0.144,0.126,0.201,0.189,0.203,0.114,0.074,west-northwest,16.1,No
2024/03/09,11:30,0.143,0.127,0.201,0.189,0.202,0.114,0.075,west-northwest,19.1,No
2024/03/09,11:40,0.144,0.126,0.201,0.190,0.202,0.113,0.074,west,25.0,No
2024/03/09,11:50,0.144,0.127,0.202,0.191,0.203,0.113,0.074,west,11.5,No
2024/03/09,12:00,0.145,0.127,0.201,0.190,0.203,0.115,0.075,west,14.0,No
2024/03/09,12:10,0.145,0.127,0.202,0.190,0.203,0.113,0.076,west,16.2,No
2024/03/09,12:20,0.144,0.128,0.202,0.192,0.203,0.115,0.074,west,13.9,No
2024/03/09,12:30,0.144,0.126,0.202,0.191,0.202,0.115,0.075,northwest,7.4,No
2024/03/09,12:40,0.143,0.126,0.202,0.191,0.203,0.115,0.075,west-northwest,10.3,No
2024/03/09,12:50,0.143,0.127,0.201,0.192,0.204,0.114,0.075,west-northwest,10.3,No
2024/03/09,13:00,0.144,0.127,0.202,0.190,0.203,0.114,0.075,northwest,11.2,No
2024/03/09,13:10,0.144,0.126,0.203,0.190,0.203,0.114,0.075,west-northwest,9.2,No
2024/03/09,13:20,0.144,0.127,0.201,0.191,0.203,0.114,0.075,northwest,8.8,No
2024/03/09,13:30,0.145,0.127,0.203,0.191,0.203,0.114,0.075,northwest,8.4,No
2024/03/09,13:40,0.145,0.127,0.202,0.191,0.203,0.114,0.075,west-northwest,12.0,No
2024/03/09,13:50,0.144,0.126,0.203,0.192,0.203,0.115,0.075,northwest,9.5,No
2024/03/09,14:00,0.144,0.127,0.202,0.191,0.203,0.114,0.075,west-northwest,11.7,No
2024/03/09,14:10,0.144,0.127,0.202,0.192,0.203,0.114,0.075,west-northwest,13.1,No
2024/03/09,14:20,0.145,0.127,0.203,0.191,0.203,0.114,0.074,west-northwest,12.9,No
2024/03/09,14:30,0.145,0.126,0.203,0.191,0.203,0.114,0.074,northwest,12.0,No
2024/03/09,14:40,0.144,0.127,0.203,0.192,0.205,0.114,0.075,northwest,11.7,No
2024/03/09,14:50,0.144,0.127,0.203,0.193,0.203,0.114,0.075,northwest,12.6,No
2024/03/09,15:00,0.144,0.127,0.203,0.193,0.205,0.114,0.075,northwest,11.2,No
2024/03/09,15:10,0.144,0.127,0.204,0.193,0.204,0.115,0.075,west-northwest,10.7,No
2024/03/09,15:20,0.144,0.127,0.203,0.193,0.202,0.115,0.075,west-northwest,9.3,No
2024/03/09,15:30,0.144,0.126,0.205,0.194,0.205,0.116,0.075,west-northwest,12.0,No
2024/03/09,15:40,0.144,0.127,0.204,0.193,0.203,0.115,0.075,west-northwest,10.0,No
2024/03/09,15:50,0.145,0.127,0.205,0.193,0.204,0.114,0.075,west-northwest,8.4,No
2024/03/09,16:00,0.146,0.127,0.204,0.194,0.203,0.114,0.075,west-northwest,7.9,No
2024/03/09,16:10,0.145,0.127,0.204,0.193,0.203,0.114,0.075,west-northwest,10.0,No
2024/03/09,16:20,0.145,0.128,0.204,0.192,0.203,0.115,0.075,west-northwest,8.8,No
2024/03/09,16:30,0.145,0.127,0.204,0.193,0.204,0.116,0.075,west-northwest,9.0,No
2024/03/09,16:40,0.145,0.128,0.204,0.193,0.204,0.115,0.075,west-northwest,7.9,No
2024/03/09,16:50,0.145,0.128,0.204,0.193,0.203,0.115,0.075,west-northwest,10.3,No
2024/03/09,17:00,0.145,0.127,0.204,0.193,0.203,0.116,0.075,west-northwest,7.9,No
2024/03/09,17:10,0.144,0.127,0.205,0.193,0.204,0.115,0.075,west-northwest,8.4,No
2024/03/09,17:20,0.144,0.128,0.204,0.194,0.203,0.115,0.076,west-northwest,9.2,No
2024/03/09,17:30,0.145,0.127,0.203,0.194,0.204,0.115,0.075,west-northwest,8.1,No
2024/03/09,17:40,0.145,0.128,0.204,0.193,0.203,0.115,0.075,west-northwest,6.9,No
2024/03/09,17:50,0.146,0.127,0.203,0.193,0.205,0.115,0.075,northwest,5.4,No
2024/03/09,18:00,0.145,0.128,0.205,0.194,0.204,0.115,0.075,west-northwest,5.6,No
2024/03/09,18:10,0.145,0.127,0.205,0.193,0.204,0.114,0.075,northwest,7.3,No
2024/03/09,18:20,0.145,0.127,0.205,0.194,0.203,0.115,0.075,northwest,6.3,No
2024/03/09,18:30,0.145,0.127,0.204,0.193,0.202,0.115,0.075,west-northwest,5.6,No
2024/03/09,18:40,0.144,0.127,0.203,0.193,0.204,0.115,0.075,northwest,5.6,No
2024/03/09,18:50,0.145,0.127,0.204,0.194,0.203,0.115,0.075,west-northwest,5.9,No
2024/03/09,19:00,0.145,0.128,0.204,0.194,0.203,0.114,0.075,west-northwest,6.1,No
2024/03/09,19:10,0.145,0.127,0.204,0.193,0.202,0.115,0.075,northwest,4.5,No
2024/03/09,19:20,0.145,0.127,0.204,0.193,0.204,0.114,0.075,northwest,1.9,No
2024/03/09,19:30,0.145,0.126,0.204,0.193,0.203,0.115,0.075,northwest,2.1,No
2024/03/09,19:40,0.144,0.127,0.204,0.192,0.204,0.115,0.074,west-northwest,4.8,No
2024/03/09,19:50,0.144,0.126,0.204,0.193,0.203,0.115,0.075,northwest,4.1,No
2024/03/09,20:00,0.145,0.127,0.205,0.193,0.202,0.115,0.074,northwest,5.9,No
2024/03/09,20:10,0.145,0.126,0.205,0.193,0.203,0.115,0.075,west-northwest,7.4,No
2024/03/09,20:20,0.144,0.127,0.204,0.193,0.203,0.114,0.075,northwest,6.3,No
2024/03/09,20:30,0.143,0.127,0.204,0.192,0.204,0.115,0.076,northwest,6.2,No
2024/03/09,20:40,0.145,0.128,0.204,0.194,0.204,0.115,0.075,north-northwest,4.1,No
2024/03/09,20:50,0.145,0.126,0.204,0.194,0.203,0.114,0.075,northwest,5.5,No
2024/03/09,21:00,0.145,0.127,0.203,0.193,0.203,0.115,0.075,north-northwest,5.2,No
2024/03/09,21:10,0.144,0.126,0.204,0.194,0.204,0.115,0.075,north-northwest,4.8,No
2024/03/09,21:20,0.145,0.127,0.205,0.195,0.203,0.114,0.074,northwest,5.5,No
2024/03/09,21:30,0.145,0.128,0.205,0.193,0.202,0.115,0.075,northwest,7.0,No
2024/03/09,21:40,0.145,0.127,0.204,0.193,0.204,0.113,0.075,northwest,6.6,No
2024/03/09,21:50,0.146,0.127,0.204,0.193,0.203,0.114,0.075,northwest,4.2,No
2024/03/09,22:00,0.145,0.127,0.204,0.193,0.203,0.115,0.076,north-northwest,3.5,No
2024/03/09,22:10,0.145,0.127,0.204,0.193,0.203,0.115,0.076,north-northwest,4.5,No
2024/03/09,22:20,0.145,0.128,0.203,0.193,0.203,0.114,0.075,north-northwest,4.3,No
2024/03/09,22:30,0.144,0.127,0.205,0.193,0.203,0.114,0.075,north-northwest,7.0,No
2024/03/09,22:40,0.145,0.128,0.204,0.192,0.203,0.115,0.076,northwest,7.7,No
2024/03/09,22:50,0.145,0.128,0.204,0.193,0.203,0.114,0.075,northwest,7.6,No
2024/03/09,23:00,0.146,0.127,0.204,0.193,0.204,0.114,0.075,northwest,9.0,No
2024/03/09,23:10,0.144,0.127,0.204,0.194,0.203,0.115,0.075,northwest,8.9,No
2024/03/09,23:20,0.146,0.127,0.205,0.193,0.203,0.115,0.075,northwest,8.3,No
2024/03/09,23:30,0.144,0.126,0.204,0.193,0.204,0.115,0.075,northwest,8.1,No
2024/03/09,23:40,0.145,0.127,0.205,0.193,0.203,0.114,0.074,northwest,8.4,No
2024/03/09,23:50,0.143,0.127,0.204,0.193,0.203,0.114,0.075,northwest,8.5,No
